Location: Unspecified
(0.0000°N, 0.0000°E)
Time: 17:38:07
(UTC+00:00)

ITAMSAT 1 - Pass Details

Date: 02 October 2021
Orbit: 783 x 797 km, 98.9° (Epoch: 22 October)

Event Time Altitude Azimuth Distance (km) Brightness Sun altitude
Rises 18:46:43 0° 166° (SSE) 3,287 10.8 -14.3°
Reaches altitude 10° 18:49:02 10° 165° (SSE) 2,354 10.0 -14.9°
Maximum altitude 18:54:15 84° 77° (ENE) 795 7.6 -16.2°
Drops below altitude 10° 18:59:24 10° 349° (N) 2,336 10.2 -17.5°
Sets 19:01:42 0° 349° (NNW) 3,260 11.0 -18.1°
